Dewpoint
57 57 56 55 55 54 53 52 50 50 52 52 55 56 56 55 54 55 57 56 56 56 57 56 57 57 57 58 58 59 60 62 63
57 56 55 55 54 54 52 52 49 50 52 53 56 56 56 54 55 55 55 56 56 56 55 55 56 56 56 56 57 58 56 57 60
56 55 54 54 53 53 53 51 48 52 54 56 57 57 57 56 55 55 56 57 56 54 55 55 57 56 56 56 56 56 56 56 57
55 54 53 53 52 53 52 49 50 51 51 57 60 60 59 58 59 57 56 56 56 55 54 57 57 57 58 54 55 55 55 56 56
55 54 53 51 50 52 50 48 48 49 55 59 59 58 58 57 57 57 55 55 59 60 59 60 58 58 57 56 56 55 58 59 59
54 54 53 49 49 51 50 50 51 50 56 58 57 56 56 58 57 54 53 54 56 56 59 58 58 58 57 58 54 56 54 54 58
51 52 50 48 49 50 49 49 49 47 49 54 55 55 56 57 58 58 59 55 52 58 60 60 59 59 56 59 57 57 55 57 56
47 48 44 44 42 41 42 44 44 43 49 51 53 53 55 56 57 58 56 53 56 60 60 59 58 59 59 58 57 57 58 58 59
43 42 42 41 39 39 41 43 43 44 48 49 50 51 52 53 54 56 56 54 54 59 60 59 57 57 57 57 59 59 58 57 57
45 44 42 39 37 38 40 43 43 44 46 47 47 48 48 48 52 55 55 55 53 54 59 60 59 59 60 58 57 56 54 54 54
44 41 39 38 37 37 40 43 43 43 44 44 44 43 42 42 46 50 53 55 54 54 57 59 59 58 57 56 55 54 53 52 51
42 41 38 37 37 36 38 43 44 43 42 42 43 43 41 42 43 45 48 52 54 54 55 56 57 57 56 55 53 51 51 51 51
42 41 38 37 37 37 41 43 43 43 42 42 40 41 41 41 43 44 44 49 51 53 53 53 52 51 51 50 50 51 50 50 50
43 40 38 39 39 38 40 42 43 43 42 41 41 40 39 39 39 41 43 48 51 52 53 53 54 53 51 51 50 49 49 49 49
42 41 39 39 39 39 39 41 44 44 44 44 43 43 41 39 38 38 40 44 49 48 49 49 50 51 50 49 49 49 49 49 49
42 41 40 39 38 39 38 41 43 44 46 45 44 43 43 43 39 38 38 39 45 48 47 46 46 47 48 48 48 48 48 48 48
42 41 40 39 38 39 39 41 40 43 46 44 44 39 39 42 40 36 37 37 38 46 45 43 43 43 44 45 45 46 48 48 48
43 42 41 39 39 39 39 39 40 42 41 45 42 40 36 40 40 35 36 36 38 44 44 42 40 40 41 42 44 45 46 46 45
43 42 41 39 39 38 39 39 39 40 40 39 39 38 40 36 37 37 34 36 37 43 43 39 40 39 40 44 45 43 39 37 38
44 42 41 39 39 38 39 39 38 38 39 36 37 34 35 36 36 34 32 34 36 40 42 41 40 38 40 43 42 36 34 33 35
Wind_Speed
16 15 15 14 14 13 13 12 13 13 15 18 21 19 19 17 14 12 10 8 13 13 13 14 13 14 15 14 14 15 16 16 17
17 15 15 14 14 13 13 12 12 14 15 19 20 19 19 17 14 11 9 10 15 14 14 13 13 14 14 14 15 14 16 16 16
16 15 14 14 14 13 13 13 14 15 19 21 20 18 15 14 12 10 9 14 16 14 14 13 13 13 14 15 15 15 15 15 16
17 16 15 14 13 13 13 14 16 16 17 19 18 17 15 12 9 8 8 17 16 14 14 14 15 14 12 13 13 14 15 14 15
16 16 16 15 13 13 13 16 16 16 17 20 18 17 15 12 10 11 13 15 13 14 12 15 18 16 15 15 15 15 14 18 15
12 12 14 16 14 14 14 13 13 15 15 18 17 17 12 13 12 11 16 15 15 16 17 14 15 15 15 14 16 17 16 15 17
13 12 12 15 13 11 8 7 8 12 13 12 14 13 15 16 13 12 18 17 15 14 12 13 16 16 18 16 18 19 19 19 18
11 10 9 10 11 8 7 6 9 14 17 15 15 14 15 14 13 15 16 15 15 17 17 18 18 20 20 20 19 18 18 19 19
11 10 8 8 8 12 9 9 12 14 16 17 16 15 14 13 13 15 17 14 13 17 16 17 18 18 18 19 20 21 22 22 23
11 9 8 9 9 13 13 13 15 16 16 14 16 15 14 14 13 13 15 15 12 12 18 18 20 21 22 23 23 21 19 19 19
12 11 10 10 9 11 15 16 16 16 16 15 14 14 14 14 13 12 12 13 12 12 13 17 19 21 21 20 18 17 17 18 19
15 14 12 11 9 12 15 14 15 16 14 14 13 13 12 13 13 12 12 12 15 13 13 13 17 18 19 18 17 17 18 17 17
16 15 13 11 12 11 15 17 15 16 16 14 11 12 11 10 10 10 11 11 11 13 15 15 14 13 15 16 16 17 16 16 16
17 16 14 13 12 12 14 11 16 18 16 15 13 12 11 10 8 10 10 10 11 11 14 17 18 16 16 17 16 16 16 16 15
18 16 15 14 13 12 12 14 10 14 17 15 13 10 8 8 9 9 9 10 10 11 13 15 15 18 17 16 16 16 15 15 15
18 17 16 15 17 14 16 12 18 12 14 13 11 8 7 6 6 7 9 10 10 11 12 13 14 14 17 17 16 15 15 14 14
18 19 18 18 16 16 16 15 10 8 9 10 8 5 3 4 3 4 7 8 9 11 11 14 14 13 12 14 16 16 15 15 14
20 20 19 19 17 18 17 17 13 17 6 13 6 5 5 7 1 3 4 7 9 10 12 12 13 14 12 12 13 16 16 16 16
20 20 20 20 18 19 18 15 14 15 16 5 2 2 7 6 6 2 3 3 8 12 11 12 11 12 11 11 13 14 15 15 15
16 18 20 20 18 19 20 18 17 13 15 8 6 3 3 5 5 8 6 4 3 5 12 12 11 10 11 11 11 13 14 15 14
Wind_Direction
118 114 111 108 105 100 97 93 91 93 87 92 101 99 93 86 82 76 78 85 88 85 85 74 76 71 69 66 63 65 58 52 47
120 116 115 113 109 107 104 99 99 102 97 98 101 90 90 89 83 82 82 92 90 88 79 77 76 74 71 69 67 61 64 59 51
122 118 116 115 113 110 107 104 107 105 96 99 98 93 88 86 90 89 88 94 85 83 84 85 82 72 72 68 71 72 67 60 63
126 123 119 116 114 112 111 109 112 103 93 103 99 96 92 87 92 103 94 77 82 83 85 82 76 64 64 75 66 65 69 74 73
127 124 123 120 118 114 111 114 111 94 97 105 98 89 82 76 78 75 84 83 71 109 92 85 80 73 65 67 73 72 71 66 80
124 124 124 124 123 115 109 107 97 84 100 106 96 86 78 67 67 85 89 100 72 76 68 69 75 72 78 76 79 74 66 71 59
131 129 126 121 118 114 111 114 98 86 109 99 90 86 76 67 53 83 84 89 94 72 71 92 83 85 88 80 84 82 74 70 69
131 127 123 117 115 106 93 84 101 110 119 109 103 93 82 74 60 63 83 89 83 71 92 92 87 82 88 81 78 79 80 75 71
142 140 145 135 131 118 99 99 105 115 120 116 111 103 95 81 65 58 60 87 88 68 75 92 91 90 90 86 85 84 77 66 60
153 153 155 143 137 127 114 112 109 113 117 111 111 107 100 91 80 67 60 54 81 76 60 90 91 94 92 86 76 73 70 65 62
157 152 149 148 147 138 127 131 120 112 118 113 110 108 101 94 90 86 70 56 58 70 60 72 90 86 80 77 77 73 70 68 65
159 152 149 147 148 134 123 123 119 115 106 112 118 113 109 103 95 88 85 70 60 70 67 63 74 79 82 78 73 73 71 67 64
157 153 153 155 143 140 131 132 125 125 122 121 114 118 115 113 111 101 89 86 74 69 71 69 71 82 84 83 79 74 70 65 60
158 157 158 153 148 149 139 134 133 131 125 119 121 123 123 119 116 108 106 96 90 80 70 62 54 68 78 79 77 69 63 59 55
157 159 159 154 151 151 147 139 130 139 132 118 110 112 114 106 107 114 111 114 104 93 83 73 61 64 71 73 71 68 63 56 50
163 162 161 160 161 166 156 137 141 135 132 112 100 79 86 106 116 119 115 113 132 115 101 91 82 71 68 66 60 54 53 51 46
171 167 171 167 161 165 163 151 141 142 165 145 117 129 87 70 97 117 123 118 120 134 118 105 96 85 73 69 62 55 47 41 35
172 176 172 171 165 171 173 164 156 159 180 174 143 145 177 147 67 96 127 128 117 131 131 115 108 95 80 71 60 55 46 38 28
177 177 173 172 173 174 177 173 166 159 171 163 158 122 138 159 157 89 119 129 131 131 136 129 113 98 86 80 68 54 42 33 26
183 178 176 176 175 177 175 174 174 170 175 159 154 143 128 132 146 160 160 99 95 131 145 138 121 106 94 85 72 54 38 29 25